| time (UTC) | temp C | wind direction | speed KPH | gust KPH | rain 1hr cm | rain 24hr cm | rain mn cm | humidity % | barometer mb |
| 20260903182004 | 26 | 146 | 20.9 | 38.6 | 0.00 | 0.15 | 0.03 | 81 | 1015.5 |
| 20260903181504 | 25 | 81 | 20.9 | 33.8 | 0.00 | 0.28 | 0.03 | 80 | 1015.6 |
| 20260903181004 | 25 | 88 | 16.1 | 33.8 | 0.00 | 0.38 | 0.03 | 81 | 1015.4 |
| 20260903180736 | 25 | 59 | 14.5 | 37.0 | 0.00 | 0.51 | 0.03 | 81 | 1015.4 |
| 20260903175951 | 25 | 92 | 27.4 | 37.0 | 0.00 | 0.66 | 0.03 | 80 | 1015.6 |
| 20260903175451 | 25 | 92 | 12.9 | 32.2 | 0.00 | 0.81 | 0.03 | 81 | 1015.5 |
| 20260903175222 | 25 | 87 | 16.1 | 32.2 | 0.00 | 1.04 | 0.03 | 82 | 1015.5 |
| 20260903174452 | 25 | 76 | 16.1 | 38.6 | 0.00 | 1.12 | 0.03 | 85 | 1015.5 |
| 20260903173952 | 24 | 68 | 11.3 | 38.6 | 0.00 | 1.14 | 0.03 | 85 | 1015.4 |
| 20260903173723 | 24 | 91 | 24.1 | 33.8 | 0.00 | 1.17 | 0.03 | 85 | 1015.7 |
| 20260903172951 | 25 | 98 | 17.7 | 33.8 | 0.00 | 1.19 | 0.03 | 85 | 1015.5 |
| 20260903172439 | 25 | 63 | 17.7 | 33.8 | 0.00 | 1.19 | 0.03 | 84 | 1015.5 |
| 20260903171939 | 25 | 77 | 14.5 | 30.6 | 0.00 | 1.19 | 0.03 | 83 | 1015.3 |
| 20260903171440 | 24 | 96 | 4.8 | 25.7 | 0.00 | 1.19 | 0.03 | 84 | 1015.4 |
| 20260903170940 | 24 | 135 | 8.0 | 25.7 | 0.03 | 1.19 | 0.03 | 85 | 1015.2 |
| 20260903170711 | 24 | 64 | 12.9 | 37.0 | 0.03 | 1.19 | 0.03 | 86 | 1015.3 |
| 20260903165940 | 24 | 128 | 19.3 | 37.0 | 0.03 | 1.19 | 0.03 | 86 | 1015.3 |
| 20260903165440 | 24 | 132 | 16.1 | 33.8 | 0.03 | 1.19 | 0.03 | 85 | 1015.0 |
| 20260903164928 | 24 | 112 | 6.4 | 32.2 | 0.03 | 1.19 | 0.03 | 85 | 1014.9 |
| 20260903164427 | 24 | 110 | 14.5 | 32.2 | 0.03 | 1.19 | 0.03 | 86 | 1014.9 |
| 20260903163927 | 23 | 116 | 20.9 | 27.4 | 0.03 | 1.19 | 0.03 | 87 | 1015.1 |
| 20260903163427 | 23 | 97 | 8.0 | 27.4 | 0.03 | 1.19 | 0.03 | 88 | 1014.9 |
| 20260903163159 | 23 | 93 | 11.3 | 24.1 | 0.03 | 1.19 | 0.03 | 88 | 1015.3 |
| 20260903162428 | 23 | 99 | 6.4 | 24.1 | 0.03 | 1.19 | 0.03 | 87 | 1015.2 |
| 20260903161928 | 24 | 126 | 9.7 | 27.4 | 0.03 | 1.19 | 0.03 | 86 | 1015.1 |
| 20260903161658 | 24 | 89 | 17.7 | 30.6 | 0.00 | 1.17 | 0.03 | 84 | 1015.1 |
| 20260903160927 | 25 | 115 | 8.0 | 30.6 | 0.00 | 1.17 | 0.00 | 83 | 1015.0 |
| 20260903160428 | 25 | 92 | 11.3 | 30.6 | 0.00 | 1.17 | 0.00 | 82 | 1014.9 |
| 20260903155927 | 25 | 124 | 19.3 | 27.4 | 0.00 | 1.17 | 0.00 | 82 | 1015.0 |
| 20260903155427 | 25 | 49 | 16.1 | 30.6 | 0.00 | 1.17 | 0.00 | 82 | 1015.0 |
| 20260903154928 | 25 | 89 | 20.9 | 30.6 | 0.00 | 1.17 | 0.00 | 81 | 1014.7 |
| 20260903154428 | 25 | 50 | 12.9 | 30.6 | 0.00 | 1.17 | 0.00 | 81 | 1014.5 |
| 20260903153928 | 25 | 135 | 16.1 | 30.6 | 0.00 | 1.17 | 0.00 | 82 | 1014.6 |
| 20260903153658 | 24 | 125 | 11.3 | 25.7 | 0.00 | 1.17 | 0.00 | 84 | 1014.8 |
| 20260903152928 | 24 | 74 | 14.5 | 33.8 | 0.00 | 1.19 | 0.00 | 85 | 1014.9 |
| 20260903152428 | 24 | 50 | 12.9 | 33.8 | 0.00 | 1.24 | 0.00 | 86 | 1015.0 |
| 20260903151928 | 24 | 86 | 17.7 | 38.6 | 0.00 | 1.27 | 0.00 | 86 | 1014.8 |
| 20260903151659 | 25 | 57 | 17.7 | 40.2 | 0.00 | 1.27 | 0.00 | 86 | 1014.9 |
| 20260903150929 | 25 | 69 | 22.5 | 40.2 | 0.00 | 1.27 | 0.00 | 84 | 1014.9 |
| 20260903150428 | 25 | 56 | 17.7 | 37.0 | 0.00 | 1.27 | 0.00 | 85 | 1014.6 |
| 20260903145927 | 24 | 68 | 16.1 | 32.2 | 0.00 | 1.27 | 0.00 | 85 | 1014.7 |
| 20260903145427 | 24 | 37 | 17.7 | 25.7 | 0.00 | 1.27 | 0.00 | 85 | 1014.7 |
| 20260903144928 | 24 | 77 | 11.3 | 40.2 | 0.00 | 1.27 | 0.00 | 84 | 1014.6 |
| 20260903144428 | 24 | 114 | 11.3 | 49.9 | 0.00 | 1.27 | 0.00 | 82 | 1015.0 |
| 20260903143928 | 25 | 76 | 17.7 | 49.9 | 0.00 | 1.24 | 0.00 | 82 | 1014.6 |
| 20260903143427 | 25 | 90 | 19.3 | 32.2 | 0.00 | 1.27 | 0.00 | 80 | 1014.8 |
| 20260903142928 | 25 | 70 | 17.7 | 37.0 | 0.00 | 1.27 | 0.00 | 80 | 1014.6 |
| 20260903142428 | 25 | 54 | 17.7 | 37.0 | 0.00 | 1.27 | 0.00 | 80 | 1014.5 |
| 20260903141929 | 25 | 94 | 14.5 | 30.6 | 0.00 | 1.27 | 0.00 | 81 | 1014.6 |
| 20260903141428 | 25 | 45 | 11.3 | 30.6 | 0.00 | 1.27 | 0.00 | 80 | 1014.4 |
| 20260903141201 | 25 | 71 | 9.7 | 30.6 | 0.00 | 1.30 | 0.00 | 81 | 1014.6 |
| 20260903140430 | 25 | 96 | 19.3 | 32.2 | 0.00 | 1.30 | 0.00 | 82 | 1014.5 |
| 20260903135928 | 25 | 85 | 20.9 | 32.2 | 0.00 | 1.30 | 0.00 | 82 | 1014.6 |
| 20260903135427 | 25 | 81 | 14.5 | 37.0 | 0.00 | 1.30 | 0.00 | 82 | 1014.4 |
| 20260903134929 | 25 | 59 | 24.1 | 32.2 | 0.00 | 1.30 | 0.00 | 82 | 1014.6 |
| 20260903134429 | 25 | 68 | 11.3 | 27.4 | 0.00 | 1.30 | 0.00 | 82 | 1014.6 |
| 20260903133928 | 25 | 93 | 12.9 | 37.0 | 0.00 | 1.30 | 0.00 | 82 | 1014.6 |
| 20260903133428 | 25 | 89 | 12.9 | 37.0 | 0.00 | 1.30 | 0.00 | 81 | 1014.4 |
| 20260903133158 | 25 | 126 | 17.7 | 32.2 | 0.00 | 1.30 | 0.00 | 80 | 1014.7 |
| 20260903132429 | 25 | 80 | 17.7 | 37.0 | 0.00 | 1.30 | 0.00 | 80 | 1014.6 |
| 20260903131928 | 25 | 85 | 20.9 | 37.0 | 0.00 | 1.30 | 0.00 | 80 | 1014.5 |
| 20260903131427 | 25 | 101 | 11.3 | 32.2 | 0.00 | 1.30 | 0.00 | 82 | 1014.4 |
| 20260903130927 | 25 | 87 | 19.3 | 32.2 | 0.00 | 1.30 | 0.00 | 81 | 1014.6 |
| 20260903130428 | 25 | 114 | 19.3 | 41.8 | 0.00 | 1.30 | 0.00 | 81 | 1014.7 |
| 20260903125928 | 25 | 66 | 11.3 | 41.8 | 0.00 | 1.30 | 0.00 | 82 | 1014.6 |
| 20260903125428 | 25 | 115 | 6.4 | 41.8 | 0.00 | 1.30 | 0.00 | 83 | 1014.5 |
| 20260903125159 | 25 | 126 | 16.1 | 41.8 | 0.00 | 1.30 | 0.00 | 82 | 1014.5 |
| 20260903124428 | 25 | 127 | 6.4 | 32.2 | 0.00 | 1.30 | 0.00 | 82 | 1014.6 |
| 20260903123929 | 25 | 92 | 19.3 | 32.2 | 0.00 | 1.30 | 0.00 | 82 | 1014.3 |
| 20260903123428 | 25 | 80 | 17.7 | 27.4 | 0.00 | 1.30 | 0.00 | 83 | 1014.4 |
| 20260903122927 | 25 | 93 | 12.9 | 32.2 | 0.00 | 1.30 | 0.00 | 83 | 1014.7 |
| 20260903122658 | 25 | 85 | 17.7 | 32.2 | 0.00 | 1.30 | 0.00 | 82 | 1014.5 |
| 20260903121927 | 25 | 105 | 19.3 | 30.6 | 0.00 | 1.30 | 0.00 | 80 | 1014.7 |
| 20260903121427 | 25 | 114 | 12.9 | 37.0 | 0.00 | 1.30 | 0.00 | 80 | 1014.7 |
| 20260903121158 | 25 | 95 | 12.9 | 37.0 | 0.00 | 1.30 | 0.00 | 81 | 1014.8 |
| 20260903120416 | 25 | 96 | 12.9 | 33.8 | 0.00 | 1.30 | 0.00 | 82 | 1014.9 |
| 20260903115916 | 25 | 86 | 12.9 | 37.0 | 0.00 | 1.30 | 0.00 | 82 | 1015.1 |
| 20260903115646 | 25 | 105 | 20.9 | 37.0 | 0.00 | 1.30 | 0.00 | 82 | 1014.9 |
| 20260903114916 | 25 | 87 | 12.9 | 32.2 | 0.00 | 1.30 | 0.00 | 82 | 1015.0 |
| 20260903114416 | 25 | 116 | 14.5 | 33.8 | 0.00 | 1.30 | 0.00 | 82 | 1014.8 |
| 20260903113915 | 25 | 61 | 16.1 | 33.8 | 0.00 | 1.30 | 0.00 | 81 | 1014.8 |
| 20260903113646 | 25 | 80 | 24.1 | 40.2 | 0.00 | 1.30 | 0.00 | 81 | 1014.7 |
| 20260903112915 | 25 | 125 | 22.5 | 40.2 | 0.00 | 1.30 | 0.00 | 81 | 1015.0 |
| 20260903112416 | 25 | 95 | 12.9 | 30.6 | 0.00 | 1.30 | 0.00 | 81 | 1015.2 |
| 20260903111916 | 25 | 43 | 12.9 | 37.0 | 0.00 | 1.30 | 0.00 | 82 | 1015.2 |
| 20260903111416 | 25 | 94 | 17.7 | 40.2 | 0.00 | 1.30 | 0.00 | 82 | 1015.1 |
| 20260903110916 | 25 | 93 | 25.7 | 40.2 | 0.00 | 1.30 | 0.00 | 81 | 1015.2 |
| 20260903110415 | 25 | 77 | 16.1 | 37.0 | 0.00 | 1.30 | 0.00 | 82 | 1015.2 |
| 20260903105915 | 25 | 107 | 24.1 | 37.0 | 0.00 | 1.30 | 0.00 | 81 | 1015.3 |
| 20260903105647 | 25 | 139 | 19.3 | 37.0 | 0.00 | 1.30 | 0.00 | 81 | 1015.4 |
| 20260903104916 | 25 | 90 | 14.5 | 38.6 | 0.00 | 1.30 | 0.00 | 81 | 1015.3 |
| 20260903104416 | 25 | 119 | 20.9 | 38.6 | 0.00 | 1.30 | 0.00 | 81 | 1015.5 |
| 20260903103916 | 25 | 108 | 14.5 | 33.8 | 0.00 | 1.30 | 0.00 | 83 | 1015.3 |
| 20260903103416 | 25 | 122 | 12.9 | 33.8 | 0.00 | 1.30 | 0.00 | 84 | 1015.7 |
| 20260903103147 | 25 | 129 | 9.7 | 32.2 | 0.00 | 1.30 | 0.00 | 83 | 1015.5 |
| 20260903102415 | 25 | 106 | 12.9 | 27.4 | 0.00 | 1.30 | 0.00 | 83 | 1015.2 |
| 20260903101915 | 25 | 114 | 9.7 | 32.2 | 0.00 | 1.30 | 0.00 | 82 | 1015.6 |
| 20260903101416 | 25 | 111 | 16.1 | 38.6 | 0.00 | 1.30 | 0.00 | 82 | 1015.4 |
| 20260903100915 | 25 | 83 | 24.1 | 38.6 | 0.00 | 1.30 | 0.00 | 82 | 1015.7 |
| 20260903100416 | 25 | 106 | 9.7 | 33.8 | 0.00 | 1.30 | 0.00 | 82 | 1015.8 |
| 20260903100146 | 25 | 121 | 19.3 | 30.6 | 0.00 | 1.30 | 1.30 | 82 | 1015.7 |
| 20260903095415 | 25 | 108 | 8.0 | 38.6 | 0.00 | 1.30 | 1.30 | 81 | 1015.6 |
| 20260903094916 | 25 | 69 | 17.7 | 38.6 | 0.00 | 1.30 | 1.30 | 80 | 1015.5 |
| 20260903094416 | 25 | 62 | 14.5 | 32.2 | 0.00 | 1.30 | 1.30 | 79 | 1015.7 |
| 20260903093915 | 25 | 119 | 11.3 | 32.2 | 0.00 | 1.30 | 1.30 | 81 | 1015.5 |
| 20260903093647 | 25 | 93 | 11.3 | 37.0 | 0.00 | 1.30 | 1.30 | 81 | 1015.8 |
| 20260903092916 | 25 | 75 | 24.1 | 37.0 | 0.00 | 1.30 | 1.30 | 82 | 1015.9 |
| 20260903092415 | 25 | 86 | 14.5 | 32.2 | 0.00 | 1.30 | 1.30 | 81 | 1016.0 |
| 20260903091916 | 25 | 94 | 17.7 | 37.0 | 0.00 | 1.30 | 1.30 | 81 | 1015.7 |
| 20260903091646 | 25 | 109 | 19.3 | 46.7 | 0.00 | 1.30 | 1.30 | 81 | 1016.2 |
| 20260903090915 | 25 | 99 | 9.7 | 46.7 | 0.00 | 1.30 | 1.30 | 81 | 1016.1 |
| 20260903090416 | 25 | 112 | 12.9 | 38.6 | 0.00 | 1.30 | 1.30 | 80 | 1016.3 |
| 20260903085915 | 25 | 105 | 19.3 | 40.2 | 0.00 | 1.30 | 1.30 | 81 | 1016.4 |
| 20260903085415 | 25 | 111 | 19.3 | 40.2 | 0.00 | 1.30 | 1.30 | 81 | 1016.3 |
| 20260903084915 | 25 | 112 | 20.9 | 33.8 | 0.00 | 1.30 | 1.30 | 81 | 1016.4 |
| 20260903084415 | 25 | 108 | 12.9 | 40.2 | 0.00 | 1.30 | 1.30 | 80 | 1016.3 |
| 20260903083921 | 25 | 129 | 9.7 | 25.7 | 0.00 | 1.30 | 1.30 | 81 | 1016.1 |
| 20260903083915 | 25 | 61 | 19.3 | 40.2 | 0.00 | 1.30 | 1.30 | 80 | 1016.3 |
| 20260903082916 | 25 | 123 | 12.9 | 40.2 | 0.00 | 1.30 | 1.30 | 81 | 1016.3 |
| 20260903082418 | 25 | 84 | 16.1 | 33.8 | 0.00 | 1.30 | 1.30 | 80 | 1016.1 |
| 20260903081915 | 25 | 114 | 14.5 | 38.6 | 0.00 | 1.30 | 1.30 | 81 | 1016.1 |
| 20260903081416 | 25 | 70 | 22.5 | 32.2 | 0.00 | 1.30 | 1.30 | 81 | 1016.6 |
| 20260903080916 | 25 | 105 | 17.7 | 32.2 | 0.00 | 1.30 | 1.30 | 82 | 1016.2 |
| 20260903080415 | 25 | 71 | 14.5 | 32.2 | 0.00 | 1.30 | 1.30 | 81 | 1016.2 |
| 20260903075916 | 25 | 93 | 14.5 | 40.2 | 0.00 | 1.30 | 1.30 | 81 | 1016.1 |
| 20260903075416 | 25 | 69 | 14.5 | 40.2 | 0.00 | 1.30 | 1.30 | 82 | 1016.1 |
| 20260903074918 | 25 | 86 | 14.5 | 37.0 | 0.00 | 1.30 | 1.30 | 82 | 1016.1 |
| 20260903074415 | 25 | 108 | 6.4 | 37.0 | 0.00 | 1.30 | 1.30 | 82 | 1016.0 |
| 20260903074144 | 26 | 98 | 12.9 | 33.8 | 0.00 | 1.30 | 1.30 | 82 | 1016.2 |
| 20260903073411 | 26 | 115 | 19.3 | 33.8 | 0.00 | 1.30 | 1.30 | 81 | 1015.9 |
| 20260903072907 | 26 | 131 | 11.3 | 33.8 | 0.00 | 1.30 | 1.30 | 81 | 1016.2 |
| 20260903072407 | 26 | 103 | 14.5 | 37.0 | 0.00 | 1.30 | 1.30 | 81 | 1016.2 |
| 20260903071907 | 26 | 95 | 17.7 | 37.0 | 0.00 | 1.30 | 1.30 | 81 | 1016.1 |
| 20260903071405 | 26 | 105 | 19.3 | 41.8 | 0.00 | 1.30 | 1.30 | 81 | 1016.0 |
| 20260903070905 | 26 | 96 | 17.7 | 41.8 | 0.00 | 1.30 | 1.30 | 80 | 1015.9 |
| 20260903070632 | 26 | 80 | 17.7 | 30.6 | 0.00 | 1.30 | 1.30 | 79 | 1015.8 |
| 20260903065900 | 26 | 89 | 16.1 | 27.4 | 0.00 | 1.30 | 1.30 | 80 | 1015.9 |
| 20260903065400 | 26 | 80 | 17.7 | 33.8 | 0.00 | 1.30 | 1.30 | 79 | 1015.7 |
| 20260903064859 | 26 | 114 | 11.3 | 33.8 | 0.00 | 1.30 | 1.30 | 79 | 1015.8 |
| 20260903064356 | 26 | 65 | 14.5 | 32.2 | 0.00 | 1.30 | 1.30 | 80 | 1016.0 |
| 20260903063856 | 26 | 103 | 14.5 | 32.2 | 0.00 | 1.30 | 1.30 | 80 | 1015.8 |
| 20260903063354 | 26 | 82 | 17.7 | 37.0 | 0.00 | 1.30 | 1.30 | 79 | 1015.7 |
| 20260903062851 | 26 | 116 | 14.5 | 37.0 | 0.00 | 1.30 | 1.30 | 79 | 1015.8 |
| 20260903062352 | 26 | 100 | 17.7 | 32.2 | 0.00 | 1.30 | 1.30 | 79 | 1015.6 |
| 20260903061849 | 26 | 60 | 16.1 | 40.2 | 0.00 | 1.30 | 1.30 | 79 | 1015.4 |
| 20260903061619 | 26 | 111 | 11.3 | 40.2 | 0.00 | 1.30 | 1.30 | 79 | 1015.6 |
| 20260903060848 | 26 | 84 | 16.1 | 32.2 | 0.00 | 1.30 | 1.30 | 79 | 1015.4 |
| 20260903060618 | 26 | 69 | 17.7 | 33.8 | 0.00 | 1.30 | 1.30 | 79 | 1015.5 |
| 20260903055850 | 26 | 115 | 14.5 | 40.2 | 0.00 | 1.30 | 1.30 | 79 | 1015.3 |
| 20260903055623 | 26 | 140 | 16.1 | 25.7 | 0.00 | 1.30 | 1.30 | 79 | 1015.6 |
| 20260903055346 | 26 | 122 | 8.0 | 40.2 | 0.00 | 1.30 | 1.30 | 79 | 1015.3 |
| 20260903054615 | 26 | 130 | 16.1 | 32.2 | 0.00 | 1.30 | 1.30 | 79 | 1015.5 |
| 20260903053844 | 26 | 96 | 20.9 | 32.2 | 0.00 | 1.30 | 1.30 | 79 | 1015.3 |
| 20260903053344 | 26 | 96 | 11.3 | 30.6 | 0.00 | 1.30 | 1.30 | 79 | 1015.3 |
| 20260903052831 | 26 | 111 | 16.1 | 32.2 | 0.00 | 1.30 | 1.30 | 79 | 1015.1 |
| 20260903052331 | 26 | 88 | 22.5 | 33.8 | 0.00 | 1.30 | 1.30 | 79 | 1015.1 |
| 20260903052103 | 26 | 106 | 22.5 | 33.8 | 0.00 | 1.30 | 1.30 | 79 | 1014.9 |
| 20260903051331 | 26 | 122 | 14.5 | 27.4 | 0.00 | 1.30 | 1.30 | 80 | 1014.9 |
| 20260903050831 | 26 | 117 | 9.7 | 27.4 | 0.00 | 1.30 | 1.30 | 81 | 1014.7 |
| 20260903050336 | 26 | 82 | 4.8 | 30.6 | 0.00 | 1.30 | 1.30 | 80 | 1014.6 |
| 20260903050330 | 26 | 115 | 17.7 | 27.4 | 0.00 | 1.30 | 1.30 | 81 | 1014.6 |
| 20260903045331 | 26 | 84 | 14.5 | 30.6 | 0.00 | 1.30 | 1.30 | 80 | 1014.6 |
| 20260903044831 | 26 | 127 | 12.9 | 30.6 | 0.00 | 1.30 | 1.30 | 79 | 1014.4 |
| 20260903044331 | 26 | 51 | 9.7 | 30.6 | 0.00 | 1.30 | 1.30 | 79 | 1014.7 |
| 20260903043831 | 26 | 94 | 11.3 | 27.4 | 0.00 | 1.30 | 1.30 | 78 | 1014.6 |
| 20260903043331 | 26 | 111 | 11.3 | 27.4 | 0.00 | 1.30 | 1.30 | 78 | 1014.6 |
| 20260903042831 | 26 | 106 | 6.4 | 27.4 | 0.00 | 1.30 | 1.30 | 78 | 1014.4 |
| 20260903042331 | 26 | 87 | 14.5 | 27.4 | 0.00 | 1.30 | 1.30 | 77 | 1014.2 |
| 20260903042108 | 26 | 105 | 14.5 | 27.4 | 0.00 | 1.30 | 1.30 | 77 | 1014.5 |
| 20260903041831 | 26 | 143 | 14.5 | 27.4 | 0.00 | 1.30 | 1.30 | 77 | 1014.4 |
| 20260903040832 | 26 | 114 | 14.5 | 32.2 | 0.00 | 1.30 | 1.30 | 78 | 1014.4 |
| 20260903040331 | 26 | 115 | 6.4 | 37.0 | 0.00 | 1.30 | 1.30 | 77 | 1014.3 |
| 20260903035830 | 26 | 105 | 9.7 | 37.0 | 0.00 | 1.30 | 1.30 | 77 | 1014.6 |
| 20260903035330 | 27 | 117 | 17.7 | 30.6 | 0.00 | 1.30 | 1.30 | 77 | 1014.4 |
| 20260903034830 | 27 | 105 | 14.5 | 30.6 | 0.00 | 1.30 | 1.30 | 76 | 1014.3 |
| 20260903034330 | 27 | 129 | 17.7 | 32.2 | 0.00 | 1.30 | 1.30 | 75 | 1014.1 |
| 20260903033832 | 27 | 44 | 12.9 | 33.8 | 0.00 | 1.30 | 1.30 | 75 | 1014.2 |
| 20260903033549 | 27 | 80 | 17.7 | 33.8 | 0.00 | 1.30 | 1.30 | 75 | 1013.8 |
| 20260903032818 | 27 | 90 | 19.3 | 30.6 | 0.00 | 1.30 | 1.30 | 76 | 1014.0 |
| 20260903032318 | 27 | 65 | 16.1 | 30.6 | 0.00 | 1.30 | 1.30 | 76 | 1014.1 |
| 20260903031818 | 27 | 65 | 11.3 | 30.6 | 0.00 | 1.30 | 1.30 | 77 | 1013.9 |
| 20260903031319 | 27 | 93 | 17.7 | 32.2 | 0.00 | 1.30 | 1.30 | 76 | 1014.1 |
| 20260903030819 | 27 | 86 | 17.7 | 32.2 | 0.00 | 1.30 | 1.30 | 75 | 1014.1 |
| 20260903030319 | 27 | 124 | 9.7 | 27.4 | 0.00 | 1.30 | 1.30 | 75 | 1014.1 |
| 20260903025819 | 27 | 92 | 6.4 | 27.4 | 0.00 | 1.30 | 1.30 | 73 | 1014.0 |
| 20260903025318 | 27 | 102 | 12.9 | 27.4 | 0.00 | 1.30 | 1.30 | 74 | 1013.9 |
| 20260903024818 | 27 | 110 | 16.1 | 30.6 | 0.00 | 1.30 | 1.30 | 73 | 1013.8 |
| 20260903024318 | 27 | 87 | 16.1 | 32.2 | 0.00 | 1.30 | 1.30 | 73 | 1014.0 |
| 20260903023818 | 28 | 117 | 17.7 | 32.2 | 0.00 | 1.30 | 1.30 | 73 | 1014.2 |
| 20260903023319 | 27 | 104 | 6.4 | 25.7 | 0.00 | 1.30 | 1.30 | 75 | 1014.0 |
| 20260903022819 | 27 | 90 | 11.3 | 32.2 | 0.00 | 1.30 | 1.30 | 75 | 1014.2 |
| 20260903022318 | 27 | 75 | 20.9 | 32.2 | 0.00 | 1.30 | 1.30 | 76 | 1014.1 |
| 20260903022050 | 28 | 91 | 19.3 | 27.4 | 0.00 | 1.30 | 1.30 | 75 | 1014.0 |
| 20260903021319 | 27 | 83 | 6.4 | 27.4 | 0.00 | 1.30 | 1.30 | 76 | 1014.1 |
| 20260903020819 | 27 | 119 | 14.5 | 30.6 | 0.00 | 1.30 | 1.30 | 76 | 1013.7 |
| 20260903020318 | 28 | 106 | 12.9 | 33.8 | 0.00 | 1.30 | 1.30 | 75 | 1014.1 |
| 20260903015818 | 28 | 76 | 14.5 | 33.8 | 0.00 | 1.30 | 1.30 | 75 | 1013.9 |
| 20260903015318 | 28 | 92 | 14.5 | 27.4 | 0.00 | 1.30 | 1.30 | 74 | 1014.2 |
| 20260903014819 | 28 | 115 | 14.5 | 24.1 | 0.00 | 1.30 | 1.30 | 74 | 1014.0 |
| 20260903014319 | 28 | 111 | 9.7 | 25.7 | 0.00 | 1.30 | 1.30 | 74 | 1014.0 |
| 20260903013819 | 28 | 90 | 17.7 | 30.6 | 0.00 | 1.30 | 1.30 | 74 | 1014.2 |
| 20260903013319 | 28 | 102 | 9.7 | 30.6 | 0.00 | 1.30 | 1.30 | 74 | 1013.9 |
| 20260903012818 | 28 | 71 | 14.5 | 27.4 | 0.00 | 1.30 | 1.30 | 73 | 1014.0 |
| 20260903012319 | 28 | 104 | 19.3 | 25.7 | 0.00 | 1.30 | 1.30 | 74 | 1013.7 |
| 20260903011818 | 28 | 111 | 8.0 | 32.2 | 0.00 | 1.30 | 1.30 | 72 | 1013.9 |
| 20260903011318 | 28 | 110 | 9.7 | 32.2 | 0.00 | 1.30 | 1.30 | 73 | 1013.8 |
| 20260903010820 | 28 | 105 | 14.5 | 30.6 | 0.00 | 1.30 | 1.30 | 73 | 1014.1 |
| 20260903010319 | 28 | 90 | 14.5 | 27.4 | 0.00 | 1.30 | 1.30 | 74 | 1014.1 |
| 20260903005818 | 28 | 64 | 11.3 | 32.2 | 0.00 | 1.30 | 1.30 | 73 | 1014.0 |
| 20260903005319 | 28 | 113 | 24.1 | 32.2 | 0.00 | 1.30 | 1.30 | 73 | 1014.1 |
| 20260903004818 | 28 | 103 | 17.7 | 32.2 | 0.00 | 1.30 | 1.30 | 73 | 1014.1 |
| 20260903004319 | 28 | 67 | 17.7 | 32.2 | 0.00 | 1.30 | 1.30 | 74 | 1014.0 |
| 20260903004050 | 28 | 101 | 20.9 | 30.6 | 0.00 | 1.30 | 1.30 | 74 | 1013.9 |
| 20260903003318 | 28 | 102 | 8.0 | 32.2 | 0.00 | 1.30 | 1.30 | 75 | 1013.9 |
| 20260903003049 | 28 | 87 | 17.7 | 32.2 | 0.00 | 1.30 | 1.30 | 74 | 1014.1 |
| 20260903002321 | 28 | 75 | 9.7 | 33.8 | 0.00 | 1.30 | 1.30 | 75 | 1014.0 |
| 20260903001819 | 28 | 77 | 20.9 | 33.8 | 0.00 | 1.30 | 1.30 | 75 | 1014.3 |
| 20260903001319 | 28 | 51 | 11.3 | 30.6 | 0.00 | 1.30 | 1.30 | 76 | 1014.1 |
| 20260903001049 | 28 | 103 | 11.3 | 33.8 | 0.00 | 1.30 | 1.30 | 76 | 1014.2 |
| 20260903000318 | 28 | 70 | 16.1 | 33.8 | 0.00 | 1.30 | 1.30 | 77 | 1014.3 |
| 20260902235817 | 28 | 81 | 16.1 | 33.8 | 0.00 | 1.30 | 1.30 | 77 | 1014.4 |
| 20260902235319 | 28 | 51 | 14.5 | 33.8 | 0.00 | 1.30 | 1.30 | 76 | 1014.6 |
| 20260902234817 | 28 | 78 | 19.3 | 33.8 | 0.00 | 1.30 | 1.30 | 76 | 1014.5 |
| 20260902234317 | 28 | 72 | 9.7 | 30.6 | 0.00 | 1.30 | 1.30 | 77 | 1014.5 |
| 20260902233817 | 28 | 132 | 11.3 | 30.6 | 0.00 | 1.30 | 1.30 | 76 | 1014.5 |